Regional Weather Roundup
Issued by NWS State College, PA

Home | Current Version | Previous Version | Text Only | Print | Product List | Glossary On
Versions: 1 2 3 4 5 6 7 8 9 10 11 12 13 14 15 16 17 18 19 20 21 22 23 24 25 26 27 28 29 30 31 32 33 34 35 36 37 38 39 40 41 42 43 44 45 46 47 48 49 50
000
ASUS41 KCTP 170703
RWRCTP

REGIONAL WEATHER ROUNDUP
NATIONAL WEATHER SERVICE STATE COLLEGE PA
300 AM EDT WED SEP 17 2014

Note: "fair" indicates few or no clouds below 12,000 feet with no
significant weather and/or obstructions to visibility.

* = STATION THAT DOES NOT REPORT PRECIPITATION /E.G. RAIN...SNOW...ETC/
    THUNDER OR FOG.

PAZ002>004-007>009-013>016-020>023-029>032-170800-
WESTERN PENNSYLVANIA

CITY           SKY/WX    TMP DP  RH WIND       PRES   REMARKS
ERIE           MOCLDY    50  46  86 S5        30.07S
MEADVILLE      CLEAR     47  44  90 CALM      30.08S
FRANKLIN*      PTCLDY    46  43  87 CALM      30.10S
NEW CASTLE     FOG       47  47 100 CALM      30.11R VSB<1/4
BEAVER COUNTY  NOT AVBL
BUTLER*        CLOUDY    50  46  87 CALM      30.11S
PITTSBURGH INT PTCLDY    53  49  86 N3        30.08F
PITTSBURGH     CLEAR     54  46  74 NE3       30.07F
INDIANA*       CLOUDY    48  46  93 CALM      30.12S
LATROBE        MOCLDY    46  46 100 CALM      30.09F FOG
WASHINGTON CO* CLOUDY    43  39  87 CALM      30.09S VSB 1/4
$$

PAZ004>006-010>012-017>019-024>028-033>037-041-042-045-046-049>053-170800-
CENTRAL PENNSYLVANIA

CITY           SKY/WX    TMP DP  RH WIND       PRES   REMARKS
BRADFORD       CLEAR     36  33  89 CALM      30.08S
DUBOIS         CLOUDY    49  47  93 CALM      30.08S
CLEARFIELD     CLOUDY    47  46  97 CALM      30.09S
JOHNSTOWN      PTCLDY    48  44  86 CALM      30.08F
ALTOONA        CLEAR     44  43  96 CALM      30.09S FOG
STATE COLLEGE  MOCLDY    49  48  97 CALM      30.07F
WILLIAMSPORT   CLOUDY    49  46  90 N5        30.07S
SELINSGROVE    CLEAR     48  45  89 CALM      30.07S FOG
FT INDIANTOWN  CLEAR     51  51 100 CALM      30.06S
CAPITAL CITY   CLEAR     51  48  89 SW3       30.06S
HARRISBURG     PTCLDY    54  50  86 N3        30.05S
YORK           CLEAR     47  45  93 CALM      30.06S
$$

PAZ038>040-043-044-047-048-054-055-060>062-067>071-170800-
EASTERN PENNSYLVANIA

CITY           SKY/WX    TMP DP  RH WIND       PRES   REMARKS
SCRANTON       CLEAR     46  43  89 SE5       30.06F
MOUNT POCONO   PTCLDY    41  39  93 NW3       30.07R FOG
ALLENTOWN      CLEAR     49  47  93 CALM      30.05S
QUAKERTOWN*    SUNNY     46  45  93 CALM      30.06S
READING        CLOUDY    55  51  86 CALM      30.05R
LANCASTER      MOCLDY    55  50  83 CALM      30.05
COATESVILLE    PTSUNNY   55  50  82 CALM      30.05S
POTTSTOWN      CLOUDY    51  49  92 CALM      30.06S
BLUE BELL      CLEAR     46  46 100 CALM      30.04S
DOYLESTOWN     CLEAR     50  32  50 CALM      30.04S
WILLOW GROVE   NOT AVBL
NORTH PHILA    CLEAR     54  48  80 CALM      30.05S
PHILADELPHIA   CLEAR     59  51  75 NW6       30.04S
$$



USA.gov is the U.S. government's official web portal to all federal, state and local government web resources and services.